Regional Weather Roundup
Issued by NWS Green Bay, WI

Home | Current Version | Previous Version | Text Only | Print | Product List | Glossary On
Versions: 1 2 3 4 5 6 7 8 9 10 11 12 13 14 15 16 17 18 19 20 21 22 23 24 25 26 27 28 29 30 31 32 33 34 35 36 37 38 39 40 41 42 43 44 45 46 47 48 49 50
000
ASUS43 KGRB 210310
RWRGRB

NORTH-CENTRAL AND NORTHEAST WISCONSIN REGIONAL WEATHER ROUNDUP
NATIONAL WEATHER SERVICE GREEN BAY WI
1000 PM CDT MON APR 20 2015

WIZ005-009-010>012-018-019-210400-
NORTH CENTRAL WISCONSIN

CITY           SKY/WX    TMP DP  RH WIND       PRES   REMARKS
IRONWOOD       CLOUDY    34  28  80 W18       29.33S
MANITOWISH WTR FLURRIES  33  29  86 W13G22    29.35F
ARBOR VITAE    FLURRIES  37  30  78 W12G18    29.36S
EAGLE RIVER    FLURRIES  34  27  76 W13G18    29.34F
LAND O LAKES   CLOUDY    34  30  85 W9G17     29.34F
RHINELANDER    CLOUDY    35  28  75 W12G21    29.37F
PHILLIPS       CLOUDY    34  27  75 W7        29.39S
ANTIGO         DRIZZLE   35  30  83 W9        29.39F
TOMAHAWK       CLOUDY    34  26  71 W8G16     29.40F
MERRILL        CLOUDY    36  27  69 W10G18    29.41S
$$

WIZ013-073-210400-
NORTHEAST WISCONSIN

CITY           SKY/WX    TMP DP  RH WIND       PRES   REMARKS
IRON MOUNTAIN  CLOUDY    37  30  75 W9        29.33S
MARINETTE      CLOUDY    39  30  70 SW6       29.40R
OCONTO         CLOUDY    39  31  73 W13       29.42S
$$

WIZ017-030-035>037-045-210400-
CENTRAL WISCONSIN

CITY           SKY/WX    TMP DP  RH WIND       PRES   REMARKS
MEDFORD        FLURRIES  35  27  75 W10G17    29.42F
WAUSAU         CLOUDY    37  26  64 W14       29.42S
MOSINEE        CLOUDY    36  27  69 W17G24    29.45S
MARSHFIELD     CLOUDY    37  27  67 W10       29.45S
WISC RAPIDS    CLOUDY    39  26  59 W12G20    29.48S
STEVENS POINT  CLOUDY    37  25  62 W9G20     29.45F
WAUPACA        CLOUDY    41  31  67 SW10      29.47F
SHAWANO        CLOUDY    41  31  68 SW7       29.44S
CLINTONVILLE   CLOUDY    39  30  70 W9        29.44F
$$

WIZ038-039-048-051-210400-
FOX VALLEY

CITY           SKY/WX    TMP DP  RH WIND       PRES   REMARKS
NWS GREEN BAY  CLOUDY    41  31  67 W12       29.45S
APPLETON       CLOUDY    39  28  65 W17       29.47S
OSHKOSH        CLOUDY    40  30  67 SW6       29.48S
FOND DU LAC    CLOUDY    41  30  65 SW9       29.50S
$$

WIZ022-050-052-210400-
EAST CENTRAL WISCONSIN

CITY           SKY/WX    TMP DP  RH WIND       PRES   REMARKS
STURGEON BAY   CLOUDY    39  30  70 W14       29.43F
MANITOWOC      CLOUDY    41  31  67 W10G20    29.47R
SHEBOYGAN      CLOUDY    40  29  64 W14       29.49R
$$

LMZ563-521-522-541>543-210400-
LAKESHORE

STATION/POSITION TIME  TEMP    WIND        PRES    VSBY  WAVE
                       AIR SEA DIR/SP/G                  HT/PER
                 (UTC) (F)     (DEG/KT/KT) (MB)    (MI)  (FT/S)
SHEBOYGAN LKSHOR 0300   42     250/ 14/ 17  999.2S
KEWAUNEE LKSHORE 0300   41     260/ 12/ 15  996.6S
NORTHPORT PIER   0300   39     280/  7/ 10  995.6S
SISTER BAY LKSHO 0300   39     280/ 12/ 14   N/A
CHAMBERS ISLAND  0300   39     200/  5/ 11  996.3R
MENOMINEE LKSHOR 0300   40     210/  8/ 10  996.6S
$$


USA.gov is the U.S. government's official web portal to all federal, state and local government web resources and services.